Find Starlink 11118

NORAD ID: 59754 Int'l Des: 2024-091 Owner: SPXS Country: US Constellation: starlink operational
LEOCIRCULAR

Aktuelle Ansicht

3D-Globus wird geladen...

Über Starlink 11118

Beschreibung wird geladen...

Nächste Überflüge

Passes for default location (London). Set your location on the main map for personalized predictions.

Höhenverlauf

Loading altitude history...

Zweizeiliger Elementsatz

1 59754U 24091B 26146.26950616 -.00029492 00000-0 -23803-3 0 9997
2 59754 53.1588 184.1530 0000194 77.9815 282.1224 15.69852238117699
Epoch: 26. Mai 2026 • Age: 10 hours

Aktueller Status

Höhe 373.6 km
Geschwindigkeit 7.69 km/s
Subsatellitenpunkt -42.28°S, 1.26°E
Startdatum 14. Mai 2024
Alter 2 years
Typ internet

Technische Details

Klassifizierung Payload
Masse 960.00 kg
Trockenmasse 910.00 kg
Gesamtmasse 960.00 kg
Länge 0.30 m
Durchmesser 4.10 m
Spannweite 29.00 m
Form Box + pan
Hersteller SPXS
Bus-Typ Starlink V2MD
Phasenstatus In Orbit
Besitzer/Staat SPXS/US

Most Searched